Weather History for Newport News, VA

Change the Weather History Date:

Sunday, January 13, 2013

  Actual Average Record
Temperature  
Mean Temperature 58 °F -  
Max Temperature 66 °F 43 °F 75 °F (2005)
Min Temperature 50 °F 27 °F 15 °F (1977)
Degree Days  
Heating Degree Days 7    
Growing Degree Days 8 (Base 50)    
Moisture  
Dew Point 52 °F    
Average Humidity 84    
Maximum Humidity 90    
Minimum Humidity 70    
Precipitation  
Precipitation 0.00 in - - ()
Sea Level Pressure  
Sea Level Pressure 30.11 in    
Wind  
Wind Speed 5 mph (South)    
Max Wind Speed 12 mph    
Max Gust Speed -    
Visibility 4 miles    
Events Fog    
Averages and records for this station are not official NWS values.
T = Trace of Precipitation, MM = Missing Value Source: NWS Daily Summary

Daily Weather History Graph

Daily Weather History Graph

Search for Another Location

Airport:

Trip Planner

Search our weather history database for the weather conditions in past years. The results will help you decide how hot, cold, wet, or windy it might be!

Date:

Astronomy

Jan. 13, 2013 Rise Set
Actual Time 7:19 AM EST 5:10 PM EST
Civil Twilight 6:50 AM EST 5:39 PM EST
Nautical Twilight 6:18 AM EST 6:11 PM EST
Astronomical Twilight 5:47 AM EST 6:42 PM EST
Moon 8:20 AM EST (1/13) 7:42 PM EST (1/13)
Length of Visible Light 10h 48m
Length of Day
9h 51m
Waxing Crescent, 5% of the Moon is Illuminated
Jan 13
Waxing Crescent
Jan 18
First Quarter
Jan 26
Full
Feb 3
Last Quarter
Feb 10
New

Hourly Weather History & Observations

Time (EST) Temp. Dew Point Humidity Pressure Visibility Wind Dir Wind Speed Gust Speed Precip Events Conditions
12:54 AM 50.0 °F 46.9 °F 89% 30.14 in 0.2 mi ENE 3.5 mph - N/A Fog Fog
1:54 AM 51.1 °F 46.9 °F 86% 30.14 in 0.2 mi SE 3.5 mph - N/A Fog Fog
2:54 AM 51.1 °F 46.9 °F 86% 30.14 in 0.2 mi Calm Calm - N/A Fog Fog
3:54 AM 51.1 °F 48.0 °F 89% 30.13 in 0.2 mi Calm Calm - N/A Fog Fog
4:54 AM 51.1 °F 48.0 °F 89% 30.13 in 0.2 mi SE 3.5 mph - N/A Fog Fog
5:54 AM 51.1 °F 46.9 °F 86% 30.12 in 0.2 mi SE 4.6 mph - N/A Fog Fog
6:03 AM 51.8 °F 48.2 °F 88% 30.12 in 0.5 mi South 4.6 mph - N/A Fog Fog
6:19 AM 51.8 °F 48.2 °F 88% 30.12 in 1.0 mi SSE 4.6 mph - N/A   Overcast
6:54 AM 51.1 °F 46.9 °F 86% 30.12 in 3.0 mi SSE 4.6 mph - N/A   Overcast
7:05 AM 51.8 °F 46.4 °F 82% 30.13 in 1.8 mi SSE 4.6 mph - N/A   Overcast
7:17 AM 51.8 °F 46.4 °F 82% 30.13 in 0.5 mi SSE 4.6 mph - N/A Fog Fog
7:33 AM 51.8 °F 48.2 °F 88% 30.14 in 0.2 mi SSE 4.6 mph - N/A Fog Fog
7:54 AM 51.1 °F 48.0 °F 89% 30.14 in 0.2 mi South 4.6 mph - N/A Fog Fog
8:54 AM 53.1 °F 48.9 °F 86% 30.14 in 0.2 mi South 3.5 mph - N/A Fog Fog
9:54 AM 54.0 °F 51.1 °F 90% 30.15 in 0.2 mi South 6.9 mph - N/A Fog Fog
10:54 AM 55.9 °F 52.0 °F 87% 30.14 in 0.2 mi South 8.1 mph - N/A Fog Fog
11:09 AM 55.4 °F 51.8 °F 88% 30.13 in 0.5 mi South 6.9 mph - N/A Fog Fog
11:34 AM 57.2 °F 53.6 °F 88% 30.12 in 1.0 mi South 6.9 mph - N/A   Overcast
11:49 AM 57.2 °F 53.6 °F 88% 30.12 in 2.5 mi SSW 5.8 mph - N/A   Overcast
11:54 AM 57.0 °F 53.1 °F 87% 30.12 in 3.0 mi South 6.9 mph - N/A   Overcast
12:54 PM 57.9 °F 54.0 °F 87% 30.09 in 5.0 mi SSW 4.6 mph - N/A   Overcast
1:54 PM 61.0 °F 55.0 °F 81% 30.08 in 6.0 mi South 6.9 mph - N/A   Haze
2:07 PM 62.6 °F 55.4 °F 77% 30.09 in 6.0 mi SW 4.6 mph - N/A   Haze
2:54 PM 64.0 °F 55.9 °F 75% 30.08 in 8.0 mi SW 5.8 mph - N/A   Mostly Cloudy
3:04 PM 64.4 °F 55.4 °F 73% 30.08 in 9.0 mi SSW 4.6 mph - N/A   Scattered Clouds
3:54 PM 66.0 °F 55.9 °F 70% 30.08 in 10.0 mi South 8.1 mph - N/A   Clear
4:54 PM 64.0 °F 55.9 °F 75% 30.08 in 9.0 mi SSW 6.9 mph - N/A   Clear
5:54 PM 64.0 °F 55.9 °F 75% 30.08 in 10.0 mi South 5.8 mph - N/A   Clear
6:54 PM 64.0 °F 57.0 °F 78% 30.07 in 8.0 mi South 11.5 mph - N/A   Clear
7:54 PM 64.0 °F 57.0 °F 78% 30.06 in 7.0 mi SSW 10.4 mph - N/A   Clear
8:54 PM 62.1 °F 57.0 °F 84% 30.05 in 5.0 mi SSW 6.9 mph - N/A   Haze
9:54 PM 63.0 °F 57.0 °F 81% 30.05 in 7.0 mi South 9.2 mph - N/A   Clear
10:54 PM 63.0 °F 57.0 °F 81% 30.06 in 8.0 mi South 6.9 mph - N/A   Clear
11:54 PM 61.0 °F 55.9 °F 83% 30.06 in 8.0 mi South 5.8 mph - N/A   Clear